Wind_Speed
37 36 36 36 35 35 35 34 34 33 32 32 31 31 30 30 29 29 29 29 28 28 28 27 27 26 26 25 25 24 24 23 23 22 22 22 21 21 21 21 21 21 21
39 39 38 38 38 38 37 37 36 36 35 34 33 33 32 31 31 31 31 31 31 30 30 29 29 29 28 27 27 27 26 25 25 24 24 23 24 23 23 23 23 23 23
42 41 41 40 40 40 40 39 38 38 38 37 36 35 35 34 33 33 33 33 33 33 32 32 31 31 30 29 29 29 28 27 27 26 26 26 25 25 25 25 24 24 25
44 43 43 42 42 42 41 41 41 40 40 39 39 38 37 36 36 36 35 35 35 34 34 34 33 33 32 32 31 30 30 29 29 28 28 28 28 28 28 27 27 27 27
46 46 45 45 44 44 44 43 42 43 42 42 41 41 40 40 38 38 38 37 37 36 36 36 35 35 34 34 33 33 32 32 32 31 30 29 30 29 29 29 29 29 28
48 48 47 47 47 46 46 45 45 45 44 44 44 43 42 42 41 40 40 40 39 39 38 38 37 36 36 36 35 35 35 34 34 34 33 32 31 31 31 30 29 29 29
49 50 50 50 49 49 48 48 48 47 47 47 46 46 45 44 44 43 42 42 42 41 41 40 39 39 39 38 37 37 36 36 35 36 35 35 34 33 32 31 31 30 30
51 50 51 50 51 51 52 51 50 49 49 49 48 49 48 47 46 46 45 44 43 43 43 43 42 41 41 40 39 39 38 37 37 37 37 37 36 35 34 32 32 32 32
50 50 51 52 52 52 53 53 53 52 51 51 51 50 50 50 49 48 48 47 46 45 44 44 44 44 43 42 42 41 40 39 38 38 38 37 36 36 36 36 35 35 34
50 51 51 52 53 53 53 54 54 54 53 53 54 53 53 52 51 51 50 49 48 48 47 46 45 45 45 44 44 43 41 41 40 40 39 38 37 37 37 37 37 37 36
50 51 51 51 52 53 53 54 55 55 55 55 55 54 54 54 54 54 52 51 50 49 48 49 48 48 47 46 45 44 44 43 42 42 41 40 39 39 38 38 38 38 37
51 51 52 52 52 53 54 55 56 56 56 57 56 56 55 54 54 55 54 53 52 51 50 50 50 50 48 47 46 46 46 45 44 44 43 42 41 40 40 39 39 39 38
51 52 52 53 53 54 54 54 55 56 56 57 57 57 56 55 55 55 55 54 53 52 51 51 51 51 50 50 48 48 47 47 46 46 45 44 42 41 41 41 40 40 39
52 52 53 54 54 54 54 54 55 55 55 56 57 57 57 57 55 54 54 54 54 54 53 52 52 51 50 50 50 49 48 48 48 48 46 45 44 43 43 42 42 41 41
51 52 53 53 54 54 54 54 54 55 55 56 57 58 58 57 56 55 54 54 54 54 54 53 52 51 50 51 51 50 50 50 49 49 48 47 46 45 44 44 43 43 43
51 51 52 53 53 54 54 55 56 56 56 56 56 57 57 57 57 56 56 55 54 54 54 53 53 52 51 51 51 51 51 50 50 49 49 48 47 46 46 45 45 45 44
50 50 51 51 52 53 53 54 55 56 56 56 56 57 56 56 56 56 57 56 55 54 53 53 53 53 53 52 52 52 51 51 50 49 49 49 49 48 47 47 47 47 46
49 50 50 50 50 50 51 52 53 54 54 54 55 56 56 56 57 57 56 56 56 56 55 54 53 53 53 52 52 52 52 51 50 50 50 50 50 49 49 49 49 48 48
48 48 48 49 49 50 50 51 52 52 53 53 53 54 54 55 55 56 56 56 56 56 56 55 55 54 54 53 52 51 52 52 51 51 50 50 50 50 50 50 49 48 48
47 47 47 48 48 48 49 48 49 50 51 51 51 52 52 53 54 54 55 55 56 56 57 57 56 55 54 53 53 53 52 52 52 52 51 50 50 50 50 51 50 50 49
45 45 46 46 46 47 47 46 47 48 48 49 49 50 50 51 52 53 53 54 54 55 55 55 55 55 54 54 54 54 54 53 53 53 52 51 51 51 51 51 50 50 50
43 44 44 45 45 45 45 46 46 46 46 46 47 48 49 50 50 50 51 52 52 52 52 53 54 54 54 53 54 54 54 54 54 54 54 53 52 52 52 52 52 51 51
41 42 43 43 44 44 44 44 45 45 45 45 45 46 47 48 48 49 50 50 50 50 50 51 51 52 52 52 53 54 54 54 54 54 54 53 53 53 52 52 52 53 53
39 40 40 41 41 42 42 41 42 43 43 43 43 44 44 45 46 47 48 49 49 49 49 50 50 51 51 51 51 52 53 53 53 53 53 53 53 53 53 52 53 53 53
36 37 38 39 40 40 41 41 41 41 41 41 41 42 42 43 44 46 47 48 48 48 48 48 49 50 50 50 51 51 52 52 51 51 52 51 51 51 51 51 52 52 52
34 35 36 36 37 37 38 38 39 39 39 39 39 39 40 41 42 43 45 47 47 47 48 48 48 49 49 49 50 50 50 50 50 49 49 49 49 49 49 49 50 50 50
Wind_Direction
256 255 254 253 252 250 249 249 248 248 248 248 249 249 249 250 250 249 248 248 249 250 251 251 253 254 255 256 256 257 258 259 259 260 262 263 266 268 270 271 272 274 276
255 255 254 253 252 251 250 250 248 248 249 249 249 249 249 249 250 250 250 249 250 250 251 252 253 255 256 257 257 257 258 259 260 260 262 264 266 268 270 271 271 272 274
255 254 254 254 252 251 250 250 250 249 249 249 250 251 250 250 250 251 251 251 251 251 252 252 253 255 256 258 258 259 259 260 261 261 262 264 266 268 269 271 271 272 273
256 255 254 254 253 252 251 251 251 251 250 250 250 251 252 251 251 252 252 252 252 252 253 253 254 255 256 257 258 259 260 261 261 262 263 265 266 269 270 270 272 273 274
256 255 254 253 253 253 252 251 251 251 251 251 250 251 251 251 252 252 252 252 252 253 253 254 254 255 256 257 258 259 261 262 262 262 264 265 266 268 270 271 272 272 273
256 255 255 253 252 252 252 252 251 251 251 251 251 251 251 251 252 252 253 252 251 252 253 253 254 255 255 256 257 259 260 262 262 262 262 264 266 268 269 270 270 272 273
256 256 255 254 253 252 251 252 251 251 251 251 251 251 251 251 251 252 253 253 253 252 253 253 254 255 255 256 257 258 260 260 261 261 262 264 266 268 268 267 269 270 271
257 256 255 254 253 253 252 251 251 251 251 251 251 251 250 251 252 252 253 254 254 253 253 253 253 254 255 256 257 258 259 260 261 262 262 263 265 265 266 267 268 270 271
256 256 256 256 254 254 253 252 252 252 252 251 252 252 251 251 252 252 253 254 254 254 254 254 253 254 255 256 257 258 259 260 261 262 262 263 263 264 266 268 269 270 271
257 257 257 256 255 254 253 253 253 252 252 252 252 252 252 252 252 252 252 253 255 255 254 254 254 253 254 255 256 257 258 259 260 261 261 262 263 264 266 268 270 271 271
258 258 258 257 256 255 254 253 253 253 253 252 252 253 252 252 252 252 252 253 254 254 254 255 255 254 254 255 255 256 257 258 259 260 260 262 263 265 267 269 270 270 271
259 259 258 258 257 256 255 255 254 253 253 253 253 253 253 253 253 253 252 253 253 253 253 254 255 255 255 255 255 255 256 257 258 259 260 262 264 266 267 268 269 270 271
259 259 259 258 258 257 256 255 254 254 253 253 253 253 253 254 253 253 253 253 252 252 252 254 254 255 255 255 255 254 255 256 257 258 260 261 263 265 266 267 268 269 270
260 259 259 259 258 257 256 255 254 254 253 253 253 253 253 253 253 253 253 253 252 252 252 253 254 254 254 254 255 255 255 257 257 257 259 260 261 263 265 266 267 269 269
260 260 259 259 259 258 257 255 255 254 253 253 253 253 253 253 253 253 253 252 252 252 252 252 252 253 254 254 254 255 256 256 257 257 258 259 260 262 264 265 267 268 269
262 261 260 259 259 259 258 257 256 255 254 254 254 253 253 252 253 252 252 252 252 252 251 250 251 251 252 253 254 255 256 256 256 257 257 259 261 262 264 265 266 268 270
262 261 261 260 260 259 258 258 257 256 255 255 254 254 253 252 252 252 251 251 251 251 251 250 250 251 251 253 255 255 255 255 255 256 258 259 260 262 263 264 266 268 269
261 261 261 261 260 259 258 258 257 256 255 255 254 254 253 252 252 251 251 250 251 251 251 251 250 251 251 252 254 254 254 254 256 257 258 259 260 262 263 264 266 267 269
262 262 260 260 259 259 258 258 257 256 256 255 254 253 253 252 251 251 250 250 250 251 250 250 250 250 252 252 253 253 254 255 256 257 257 259 260 261 262 264 265 268 269
262 262 261 261 260 259 259 258 257 257 256 255 254 253 252 251 250 250 250 250 250 250 250 250 250 251 252 252 253 253 254 255 256 256 257 259 260 261 262 263 266 267 269
262 261 261 260 260 259 259 258 258 257 256 255 254 253 252 250 249 249 250 249 249 250 250 250 251 251 252 252 253 253 254 255 256 256 257 259 260 261 263 264 266 267 269
262 261 260 259 259 258 258 257 257 257 256 255 254 253 252 249 249 249 248 248 248 249 249 250 251 251 251 252 253 254 255 255 256 256 257 258 260 262 263 265 266 267 269
262 262 261 259 259 259 258 257 256 256 256 256 255 253 251 249 248 247 247 247 247 248 249 250 250 251 252 253 254 254 254 255 256 256 257 259 261 262 264 265 266 268 270
262 262 262 260 259 258 258 257 256 256 255 255 254 253 251 249 248 247 247 247 247 249 249 250 251 251 252 253 255 255 255 255 256 257 259 260 261 263 264 266 267 269 270
264 263 262 260 259 257 257 255 255 255 255 254 253 252 251 250 249 248 247 247 247 248 249 250 251 252 253 254 255 256 256 256 257 258 259 261 262 262 264 266 267 268 269
266 264 263 261 259 257 256 254 254 254 254 253 252 251 252 251 251 250 249 248 248 248 248 249 251 252 253 254 255 256 256 256 256 258 259 261 262 263 264 266 267 268 269
Height
5784 5786 5787 5789 5791 5793 5795 5797 5799 5801 5803 5805 5806 5808 5811 5813 5814 5816 5818 5820 5822 5823 5825 5826 5827 5829 5830 5831 5832 5833 5834 5835 5836 5836 5837 5838 5838 5838 5839 5839 5839 5839 5839
5775 5777 5778 5780 5782 5784 5787 5789 5790 5793 5795 5797 5799 5801 5804 5806 5808 5810 5812 5814 5815 5817 5819 5820 5822 5823 5824 5825 5826 5828 5829 5830 5831 5831 5832 5832 5833 5833 5834 5834 5834 5834 5834
5765 5767 5769 5771 5773 5775 5777 5780 5782 5784 5787 5789 5791 5793 5796 5798 5800 5802 5804 5807 5808 5810 5812 5813 5815 5817 5818 5819 5820 5821 5823 5824 5825 5826 5826 5827 5827 5828 5828 5828 5829 5829 5829
5755 5757 5759 5761 5763 5765 5768 5770 5773 5775 5778 5780 5783 5785 5787 5790 5792 5794 5797 5799 5801 5803 5805 5806 5808 5810 5811 5813 5814 5815 5816 5817 5818 5819 5820 5821 5821 5822 5822 5822 5823 5823 5823
5743 5745 5748 5750 5752 5755 5757 5760 5763 5765 5768 5771 5773 5776 5778 5781 5783 5785 5788 5790 5793 5795 5797 5798 5800 5802 5804 5805 5807 5808 5809 5810 5811 5812 5813 5814 5815 5815 5816 5816 5816 5816 5816
5732 5734 5736 5738 5741 5744 5746 5749 5752 5754 5757 5760 5762 5765 5768 5771 5774 5776 5778 5781 5783 5786 5788 5790 5792 5794 5796 5797 5799 5800 5802 5803 5804 5805 5806 5807 5808 5808 5809 5809 5809 5809 5809
5719 5721 5724 5726 5729 5731 5734 5737 5740 5743 5746 5749 5752 5755 5758 5760 5764 5766 5768 5771 5773 5776 5778 5781 5783 5785 5787 5789 5791 5792 5794 5795 5796 5797 5798 5799 5800 5801 5802 5802 5802 5802 5802
5706 5708 5711 5713 5716 5719 5721 5724 5728 5731 5734 5737 5740 5743 5747 5750 5753 5756 5758 5760 5763 5766 5768 5771 5774 5776 5778 5780 5782 5784 5785 5787 5788 5789 5790 5791 5792 5793 5794 5794 5795 5795 5795
5692 5695 5697 5700 5702 5705 5708 5711 5714 5718 5721 5724 5727 5730 5734 5738 5741 5745 5747 5750 5753 5755 5758 5760 5763 5765 5768 5770 5772 5774 5776 5778 5779 5780 5781 5782 5783 5784 5785 5786 5786 5787 5787
5679 5681 5683 5686 5688 5691 5694 5697 5700 5704 5707 5711 5714 5717 5721 5725 5728 5732 5735 5738 5741 5744 5747 5749 5752 5755 5757 5760 5762 5764 5766 5768 5770 5771 5772 5773 5774 5775 5776 5777 5778 5778 5778
5665 5667 5670 5672 5674 5677 5680 5683 5686 5689 5693 5696 5700 5703 5707 5711 5714 5718 5722 5726 5729 5732 5735 5737 5740 5743 5746 5749 5752 5754 5756 5758 5759 5761 5763 5764 5765 5766 5767 5768 5768 5769 5769
5652 5654 5656 5658 5660 5662 5665 5668 5671 5674 5678 5681 5685 5689 5692 5696 5700 5704 5708 5712 5716 5719 5722 5725 5728 5731 5734 5737 5740 5742 5744 5747 5749 5750 5752 5754 5755 5756 5757 5758 5759 5759 5760
5638 5640 5641 5643 5645 5647 5650 5652 5656 5659 5662 5666 5670 5674 5677 5681 5685 5689 5693 5697 5701 5706 5709 5712 5715 5719 5722 5725 5728 5731 5733 5735 5738 5739 5741 5743 5745 5746 5747 5748 5749 5749 5750
5624 5625 5627 5628 5630 5632 5635 5637 5640 5644 5647 5651 5655 5658 5662 5666 5670 5674 5678 5682 5686 5691 5695 5699 5702 5705 5708 5712 5715 5718 5721 5723 5726 5728 5730 5732 5734 5735 5737 5738 5738 5739 5739
5609 5610 5612 5613 5615 5617 5620 5622 5625 5628 5632 5635 5639 5643 5647 5651 5655 5659 5663 5667 5671 5675 5680 5685 5688 5692 5695 5698 5702 5705 5708 5711 5713 5716 5718 5720 5722 5724 5725 5727 5727 5728 5728
5594 5596 5597 5598 5600 5602 5604 5607 5609 5612 5616 5620 5623 5627 5631 5635 5640 5644 5648 5652 5656 5660 5665 5670 5674 5678 5681 5684 5688 5691 5694 5697 5700 5703 5706 5708 5710 5712 5713 5715 5716 5716 5717
5580 5581 5582 5584 5585 5587 5589 5591 5594 5597 5600 5604 5607 5611 5616 5620 5624 5628 5633 5637 5641 5645 5650 5655 5659 5663 5667 5670 5674 5677 5681 5684 5687 5690 5693 5695 5697 5699 5701 5702 5703 5704 5705
5565 5566 5568 5569 5570 5572 5574 5576 5579 5581 5584 5588 5592 5595 5600 5604 5608 5613 5617 5622 5626 5630 5635 5640 5644 5648 5652 5656 5660 5663 5667 5670 5673 5676 5679 5681 5684 5686 5688 5689 5690 5691 5692
5551 5552 5553 5554 5555 5557 5559 5561 5563 5566 5569 5573 5576 5580 5584 5588 5593 5597 5601 5606 5611 5615 5619 5624 5630 5633 5637 5641 5645 5649 5653 5656 5660 5663 5665 5668 5670 5672 5674 5676 5677 5678 5679
5536 5537 5538 5540 5541 5542 5544 5546 5549 5551 5554 5558 5561 5564 5568 5572 5577 5581 5586 5591 5595 5599 5604 5609 5614 5618 5623 5627 5630 5635 5639 5642 5646 5649 5651 5654 5656 5658 5660 5662 5664 5665 5665
5522 5524 5525 5526 5527 5529 5531 5533 5534 5537 5540 5543 5547 5550 5554 5557 5562 5566 5571 5575 5580 5584 5588 5593 5598 5603 5608 5612 5616 5620 5624 5627 5631 5634 5637 5640 5643 5644 5646 5647 5649 5650 5651
5509 5510 5511 5513 5514 5515 5517 5519 5521 5523 5526 5529 5533 5536 5539 5543 5547 5552 5556 5560 5565 5569 5574 5579 5584 5588 5593 5597 5601 5604 5608 5612 5617 5621 5622 5625 5627 5629 5631 5633 5635 5635 5636
5496 5497 5498 5500 5501 5502 5504 5505 5507 5510 5513 5516 5519 5523 5526 5530 5533 5537 5541 5546 5551 5555 5560 5565 5569 5574 5578 5583 5587 5590 5593 5596 5601 5604 5606 5610 5612 5615 5617 5618 5619 5620 5621
5484 5485 5486 5487 5488 5490 5491 5493 5495 5497 5500 5503 5506 5510 5513 5517 5520 5524 5527 5532 5537 5542 5546 5551 5556 5560 5564 5567 5570 5574 5577 5581 5585 5588 5591 5595 5597 5599 5601 5603 5604 5605 5605
5473 5474 5474 5475 5476 5478 5479 5481 5483 5485 5488 5491 5494 5498 5501 5505 5508 5511 5515 5519 5524 5528 5532 5536 5541 5545 5549 5552 5555 5558 5562 5565 5569 5573 5575 5579 5582 5584 5586 5587 5588 5589 5589
5462 5463 5463 5464 5465 5467 5468 5470 5472 5474 5478 5481 5484 5487 5490 5493 5496 5498 5502 5506 5510 5515 5518 5523 5527 5531 5535 5538 5541 5544 5547 5551 5554 5558 5561 5564 5567 5568 5571 5573 5573 5573 5574